When you browse on this site, cookies collect data to enhance your experience and personalize the content and advertising you see.
Visit our Privacy Policy to learn more. By continuing to use the site, you agree to this use of cookies and data.
  • In Latvia
  • List of Countries
  • For 7 days
  • Water Temperature
  • Satellite Maps
  • Weather Map
  • Weather Widgets
  • user-avatar
    Login

    Hourly Weather Qala i Naw

    Today, 21 April, Sunday

    Time Temperature Precipitation Wind Pressure Humidity
    00:00 +17°C° 0 mm 3 mps 678 mmHg 84%
    01:00 +16°C° 0 mm 3 mps 678 mmHg 91%
    02:00 +14°C° 0 mm 4 mps 678 mmHg 90%
    03:00 +14°C° 0 mm 4 mps 678 mmHg 89%
    04:00 +13°C° 0 mm 4 mps 678 mmHg 88%
    05:00 +13°C° 0 mm 4 mps 678 mmHg 88%
    06:00 +12°C° 0 mm 3 mps 679 mmHg 88%
    07:00 +12°C° 0 mm 3 mps 679 mmHg 87%
    08:00 +12°C° 0 mm 3 mps 679 mmHg 86%
    09:00 +13°C° 0 mm 3 mps 679 mmHg 84%
    10:00 +13°C° 0 mm 3 mps 679 mmHg 82%
    11:00 +14°C° 0 mm 4 mps 679 mmHg 80%
    12:00 +14°C° 0 mm 4 mps 679 mmHg 78%
    13:00 +15°C° 0 mm 4 mps 679 mmHg 75%
    14:00 +15°C° 0 mm 4 mps 679 mmHg 77%
    15:00 +14°C° 0 mm 4 mps 679 mmHg 79%
    16:00 +14°C° 0 mm 4 mps 679 mmHg 81%
    17:00 +14°C° 0 mm 3 mps 679 mmHg 83%
    18:00 +13°C° 0 mm 3 mps 679 mmHg 84%
    19:00 +14°C° 0 mm 2 mps 680 mmHg 86%
    20:00 +14°C° 0 mm 2 mps 680 mmHg 87%
    21:00 +14°C° 0 mm 2 mps 680 mmHg 87%
    22:00 +13°C° 0 mm 2 mps 681 mmHg 88%
    23:00 +13°C° 0 mm 1 mps 680 mmHg 88%

    Tomorrow, 22 April, Monday

    Time Temperature Precipitation Wind Pressure Humidity
    00:00 +13°C° 0 mm 1 mps 680 mmHg 88%
    01:00 +13°C° 0 mm 1 mps 680 mmHg 89%
    02:00 +12°C° 0 mm 1 mps 679 mmHg 89%
    03:00 +12°C° 0 mm 1 mps 679 mmHg 89%
    04:00 +12°C° 0 mm 1 mps 679 mmHg 90%
    05:00 +12°C° 0 mm 1 mps 679 mmHg 86%
    06:00 +13°C° 0 mm 1 mps 679 mmHg 82%
    07:00 +14°C° 0 mm 1 mps 679 mmHg 78%
    08:00 +15°C° 0 mm 2 mps 680 mmHg 72%
    09:00 +17°C° 0 mm 3 mps 680 mmHg 66%
    10:00 +18°C° 0 mm 3 mps 680 mmHg 59%
    11:00 +19°C° 0 mm 4 mps 680 mmHg 57%
    12:00 +20°C° 0 mm 4 mps 680 mmHg 54%
    13:00 +21°C° 0 mm 4 mps 679 mmHg 51%
    14:00 +22°C° 0 mm 4 mps 679 mmHg 50%
    15:00 +22°C° 0 mm 4 mps 679 mmHg 48%
    16:00 +24°C° 0 mm 3 mps 679 mmHg 46%
    17:00 +21°C° 0 mm 3 mps 678 mmHg 51%
    18:00 +20°C° 0 mm 2 mps 678 mmHg 55%
    19:00 +20°C° 0 mm 1 mps 677 mmHg 60%
    20:00 +20°C° 0.1 mm 1 mps 678 mmHg 61%
    21:00 +20°C° 0.1 mm 1 mps 678 mmHg 61%
    22:00 +20°C° 0.1 mm 1 mps 678 mmHg 62%
    23:00 +20°C° 0.4 mm 1 mps 678 mmHg 63%

    Day after tomorrow, 23 April, Tuesday

    Time Temperature Precipitation Wind Pressure Humidity
    00:00 +20°C° 0.4 mm 1 mps 678 mmHg 64%
    01:00 +20°C° 0.4 mm 1 mps 677 mmHg 65%
    02:00 +19°C° 0.3 mm 2 mps 677 mmHg 61%
    03:00 +19°C° 0.3 mm 3 mps 677 mmHg 57%
    04:00 +19°C° 0.3 mm 4 mps 677 mmHg 53%
    05:00 +20°C° 0 mm 3 mps 677 mmHg 51%
    06:00 +22°C° 0 mm 3 mps 678 mmHg 49%
    07:00 +24°C° 0 mm 3 mps 678 mmHg 47%
    08:00 +26°C° 0 mm 4 mps 679 mmHg 41%
    09:00 +28°C° 0 mm 4 mps 679 mmHg 35%
    10:00 +30°C° 0 mm 5 mps 679 mmHg 29%
    11:00 +30°C° 0 mm 5 mps 679 mmHg 32%
    12:00 +30°C° 0 mm 6 mps 679 mmHg 34%
    13:00 +29°C° 0 mm 6 mps 678 mmHg 37%
    14:00 +26°C° 1.5 mm 7 mps 677 mmHg 52%
    15:00 +22°C° 1.5 mm 7 mps 676 mmHg 68%
    16:00 +18°C° 1.5 mm 8 mps 675 mmHg 83%
    17:00 +17°C° 3.9 mm 6 mps 676 mmHg 85%
    18:00 +17°C° 3.9 mm 4 mps 677 mmHg 87%
    19:00 +16°C° 3.9 mm 2 mps 677 mmHg 88%
    20:00 +13°C° 2.8 mm 3 mps 678 mmHg 90%
    21:00 +11°C° 2.8 mm 3 mps 678 mmHg 91%
    22:00 +8°C° 2.8 mm 4 mps 678 mmHg 92%
    23:00 +7°C° 2.3 mm 4 mps 678 mmHg 92%

    24 April, Wednesday

    Time Temperature Precipitation Wind Pressure Humidity
    00:00 +7°C° 2.3 mm 4 mps 678 mmHg 93%
    01:00 +7°C° 2.3 mm 4 mps 678 mmHg 93%
    02:00 +6°C° 3 mm 4 mps 679 mmHg 93%
    03:00 +6°C° 3 mm 4 mps 679 mmHg 94%
    04:00 +6°C° 3 mm 4 mps 679 mmHg 94%
    05:00 +6°C° 2.6 mm 4 mps 680 mmHg 94%
    06:00 +6°C° 2.6 mm 4 mps 680 mmHg 95%
    07:00 +6°C° 2.6 mm 5 mps 681 mmHg 95%
    08:00 +6°C° 1 mm 4 mps 681 mmHg 94%
    09:00 +6°C° 1 mm 4 mps 682 mmHg 93%
    10:00 +6°C° 1 mm 4 mps 682 mmHg 92%
    11:00 +6°C° 0.2 mm 4 mps 682 mmHg 91%
    12:00 +6°C° 0.2 mm 4 mps 682 mmHg 90%
    13:00 +6°C° 0.2 mm 4 mps 682 mmHg 89%
    14:00 +6°C° 0.1 mm 4 mps 682 mmHg 87%
    15:00 +7°C° 0.1 mm 3 mps 682 mmHg 85%
    16:00 +7°C° 0.1 mm 3 mps 682 mmHg 83%
    17:00 +7°C° 0.1 mm 3 mps 683 mmHg 82%
    18:00 +7°C° 0.1 mm 2 mps 683 mmHg 81%
    19:00 +8°C° 0.1 mm 1 mps 684 mmHg 80%
    20:00 +8°C° 0 mm 1 mps 684 mmHg 81%
    21:00 +8°C° 0 mm 1 mps 684 mmHg 81%
    22:00 +8°C° 0 mm 1 mps 684 mmHg 82%
    23:00 +8°C° 0 mm 1 mps 684 mmHg 83%

    25 April, Thursday

    Time Temperature Precipitation Wind Pressure Humidity
    00:00 +7°C° 0 mm 1 mps 684 mmHg 84%
    01:00 +7°C° 0 mm 1 mps 683 mmHg 86%
    02:00 +7°C° 0 mm 1 mps 683 mmHg 86%
    03:00 +7°C° 0 mm 1 mps 683 mmHg 87%
    04:00 +6°C° 0 mm 1 mps 683 mmHg 88%
    05:00 +7°C° 0 mm 1 mps 684 mmHg 86%
    06:00 +7°C° 0 mm 1 mps 684 mmHg 83%
    07:00 +7°C° 0 mm 1 mps 684 mmHg 81%
    08:00 +8°C° 0 mm 1 mps 684 mmHg 77%
    09:00 +8°C° 0 mm 2 mps 684 mmHg 73%
    10:00 +9°C° 0 mm 2 mps 684 mmHg 69%
    11:00 +10°C° 0 mm 3 mps 684 mmHg 66%
    12:00 +11°C° 0 mm 3 mps 683 mmHg 63%
    13:00 +12°C° 0 mm 3 mps 683 mmHg 60%
    14:00 +13°C° 0 mm 3 mps 683 mmHg 58%
    15:00 +13°C° 0 mm 4 mps 683 mmHg 56%
    16:00 +13°C° 0 mm 4 mps 682 mmHg 55%
    17:00 +13°C° 0 mm 3 mps 683 mmHg 58%
    18:00 +12°C° 0 mm 3 mps 683 mmHg 60%
    19:00 +12°C° 0 mm 2 mps 683 mmHg 63%
    20:00 +10°C° 0 mm 2 mps 683 mmHg 65%
    21:00 +11°C° 0 mm 1 mps 683 mmHg 67%
    22:00 +10°C° 0 mm 1 mps 683 mmHg 69%
    23:00 +10°C° 0 mm 1 mps 683 mmHg 70%

    26 April, Friday

    Time Temperature Precipitation Wind Pressure Humidity
    00:00 +9°C° 0 mm 1 mps 682 mmHg 71%
    01:00 +9°C° 0 mm 1 mps 682 mmHg 72%
    02:00 +9°C° 0 mm 1 mps 682 mmHg 72%
    03:00 +8°C° 0 mm 1 mps 682 mmHg 73%
    04:00 +7°C° 0 mm 0 mps 681 mmHg 73%
    05:00 +8°C° 0 mm 1 mps 682 mmHg 70%
    06:00 +9°C° 0 mm 1 mps 682 mmHg 67%
    07:00 +8°C° 0 mm 2 mps 682 mmHg 65%
    08:00 +9°C° 0 mm 2 mps 683 mmHg 62%
    09:00 +10°C° 0 mm 3 mps 683 mmHg 58%
    10:00 +11°C° 0 mm 3 mps 683 mmHg 55%
    11:00 +12°C° 0 mm 4 mps 683 mmHg 53%
    12:00 +13°C° 0 mm 5 mps 683 mmHg 51%
    13:00 +14°C° 0 mm 6 mps 682 mmHg 49%
    14:00 +14°C° 0 mm 6 mps 682 mmHg 50%
    15:00 +14°C° 0 mm 6 mps 682 mmHg 50%
    16:00 +13°C° 0 mm 6 mps 682 mmHg 51%
    17:00 +12°C° 0 mm 5 mps 683 mmHg 55%
    18:00 +11°C° 0 mm 4 mps 683 mmHg 58%
    19:00 +10°C° 0 mm 3 mps 683 mmHg 61%
    20:00 +10°C° 0 mm 3 mps 683 mmHg 63%
    21:00 +9°C° 0 mm 2 mps 683 mmHg 65%
    22:00 +10°C° 0 mm 1 mps 683 mmHg 66%
    23:00 +9°C° 0 mm 1 mps 683 mmHg 67%
    Show more